Regional Weather Roundup
Issued by NWS

Home | Current Version | Previous Version | Text Only | Print | Product List | Glossary On
Versions: 1 2 3 4 5 6 7 8 9 10 11 12 13 14 15 16 17 18 19 20 21 22 23 24 25 26 27 28 29 30 31 32 33 34 35 36 37 38 39 40 41 42 43 44 45 46 47 48 49 50
000
ASUS43 KMPX 260101
RWRMN
WEATHER ROUNDUP FOR MINNESOTA
NATIONAL WEATHER SERVICE TWIN CITIES/CHANHASSEN MN
800 PM CDT SUN SEP 25 2016


NOTE: "FAIR" INDICATES FEW OR NO CLOUDS BELOW 12,000 FEET WITH NO
SIGNIFICANT WEATHER AND/OR OBSTRUCTIONS TO VISIBILITY. N/A MEANS
CURRENT SKY AND/OR WEATHER CONDITIONS ARE NOT AVAILABLE.

MNZ060>063-068>070-260200-
   Twin Cities Metro

CITY           SKY/WX    TMP DP  RH WIND       PRES   REMARKS
TWIN CITIES    CLOUDY    60  48  64 W14       29.95R
ST PAUL        CLOUDY    60  48  64 W14G23    29.95R
CRYSTAL        CLOUDY    60  45  57 W15G22    29.94R
BLAINE         PTCLDY    61  50  67 W10       29.94R
LAKEVILLE      CLOUDY    57  50  77 W9        29.97R
EDEN PRAIRIE   CLOUDY    60  47  61 W14G22    29.96R
LAKEVILLE      CLOUDY    57  50  77 W9        29.97R
SOUTH ST PAUL  CLOUDY    60  48  64 W10       29.95R
LAKE ELMO      CLOUDY    59  50  72 W9G21     29.95R
$$
MNZ001>005-007-008-013>017-022>024-027-028-260200-
   Northwest Minnesota

CITY           SKY/WX    TMP DP  RH WIND       PRES   REMARKS
BEMIDJI        DRIZZLE   49  48  95 W22G29    29.85R
HALLOCK        LGT RAIN  52  50  93 NW12      29.87R
ROSEAU         LGT RAIN  52  46  82 W16G22    29.78R
WARROAD        RAIN      52  46  82 W13G20    29.76R
THIEF RVR FALL LGT RAIN  50  47  89 NW23G35   29.89R
CROOKSTON      LGT RAIN  50  50 100 NW9       29.93R
FOSSTON        RAIN      48  46  93 W24G35    29.90R
DETROIT LAKES  LGT RAIN  50  46  87 NW17      29.97R
MOORHEAD       LGT RAIN  55  46  71 NW8       29.99R
PARK RAPIDS    CLOUDY    51  44  77 W18G29    29.90R
MAHNOMEN       DRIZZLE   49  46  90 NW16G29   29.94R
$$
MNZ006-009>011-018-025>026-260200-
   North Central Minnesota

CITY           SKY/WX    TMP DP  RH WIND       PRES   REMARKS
BAUDETTE       LGT RAIN  52  51  97 W13       29.71S FOG
FLAG ISLAND    CLOUDY    54  52  94 NW21      29.69R
INTL FALLS     LGT RAIN  54  52  93 SW10G17   29.70R FOG
WASKISH        CLOUDY    52  52 100 W20G30    29.77R FOG
BIG FORK       RAIN      52  50  93 SW6       29.78R
GRAND RAPIDS   CLOUDY    52  49  89 W12G18    29.83R
ORR            CLOUDY    54  48  82 W5        29.71R
COOK           CLOUDY    54  52  94 SW12G20   29.75R FOG
WALKER         DRIZZLE   49  47  94 W18G30    29.86R
$$
MNZ012-019>021-037-260200-
   Northeast Minnesota

CITY           SKY/WX    TMP DP  RH WIND       PRES   REMARKS
DULUTH         MOCLDY    57  51  80 W15       29.79R
ELY            CLOUDY    55  54  94 SW10      29.73S
HIBBING        CLOUDY    53  49  86 W15G23    29.78R
EVELETH        CLOUDY    55  52  90 W15       29.78R
DULUTH HARBOR  CLOUDY    61  54  77 W13       29.80R
TWO HARBORS    CLOUDY    59  54  82 W7        29.76R
SILVER BAY     CLOUDY    57  55  94 SW6       29.74S
GRAND MARAIS     N/A     59  57  93 W18       29.73R
G MARAIS ARPRT MOCLDY    54  48  82 SW5       29.75S
$$
MNZ029>031-032-039>041-046>048-054>057-064-260200-
   West Central Minnesota

CITY           SKY/WX    TMP DP  RH WIND       PRES   REMARKS
FERGUS FALLS   CLOUDY    55  43  62 N9G17     30.01R
MORRIS         PTCLDY    57  37  47 W17G23    30.00R
ALEXANDRIA     CLEAR     52  47  83 NW7       29.99R
ELBOW LAKE     MOCLDY    55  43  63 NW7       29.99R
GLENWOOD       CLEAR     52  46  82 W7        29.99S
BENSON         MOCLDY    57  37  47 NW9       30.01R
MADISON          N/A     59  41  51 W9        30.05R
WILLMAR        FAIR      61  43  51 W12       30.02R
$$
MNZ033>034-036-042>043-049>051-058-059-260200-
   Central Minnesota

CITY           SKY/WX    TMP DP  RH WIND       PRES   REMARKS
ST CLOUD       CLEAR     56  45  66 W16G30    29.96R
SAUK CENTRE    FAIR      52  46  80 W6        29.98R
PAYNESVILLE    MOCLDY    56  45  67 W7        29.99R
AITKIN         CLOUDY    55  45  67 W9G21     29.87R
PINE RIVER     CLOUDY    52  45  76 W17G26    29.92S
BRAINERD       CLOUDY    54  45  71 W15G30    29.91R
STAPLES        CLOUDY    54  41  62 NW23G35   29.93S
LONG PRAIRIE   FAIR      52  43  71 W9        29.97R
LITTLE FALLS   PTCLDY    54  41  62 W16G23    29.95R
LITCHFIELD     PTCLDY    57  50  77 W6        29.99R
BUFFALO        PTCLDY    58  46  64 W8G18     29.98R
MAPLE LAKE     CLEAR     57  49  72 W6        29.98R
HUTCHINSON     CLOUDY    57  48  72 W7        30.00R
$$
MNZ037-044-045-052-053-260200-
   East Central Minnesota

CITY           SKY/WX    TMP DP  RH WIND       PRES   REMARKS
PRINCETON        N/A     55  48  76 W12G18    29.94R
MORA           CLOUDY    54  46  76 W10       29.92R
CAMBRIDGE      MOCLDY    59  46  63 W8        29.91R
MOOSE LAKE     CLOUDY    55  48  76 W7        29.84R
HINCKLEY       MOCLDY    55  50  82 W14G21    29.88R
CLOQUET        RAIN      55  50  82 W15G23    29.82R
MCGREGOR       PTCLDY    54  48  82 W14G22    29.86R
$$
MNZ071>073-080-081-089-090-097-098-260200-
   Southwest Minnesota

CITY           SKY/WX    TMP DP  RH WIND       PRES   REMARKS
MONTEVIDEO     CLEAR     57  41  54 NW7       30.05R
GRANITE FALLS  CLEAR     59  42  51 W12       30.06R
CANBY          PTCLDY    57  40  53 NW10      30.08R
MARSHALL       PTCLDY    57  41  55 W10       30.07R
REDWOOD FALLS  CLEAR     59  40  49 W12       30.03R
OLIVIA         PTCLDY    55  43  62 W9        30.01R
PIPESTONE      CLEAR     57  37  47 NW7       30.11R
WINDOM         PTCLDY    57  43  58 W8        30.07R
WORTHINGTON    CLEAR     58  41  53 W15       30.10R
JACKSON        CLEAR     59  37  44 W10G17    30.08R
TRACY          CLEAR     59  42  53 NW9       30.08R
$$
MNZ065>067-074>077-082>085-091>093-260200-
   South Central Minnesota

CITY           SKY/WX    TMP DP  RH WIND       PRES   REMARKS
MANKATO        PTCLDY    57  49  74 W8        30.02
NEW ULM        PTCLDY    55  46  71 W8        30.02R
ST JAMES       CLEAR     59  43  55 W14G20    30.05R
FAIRMONT       PTCLDY    56  49  77 W8        30.06R
GLENCOE        CLEAR     59  50  72 W6        29.99R
FARIBAULT      CLOUDY    59  50  72 W9        30.00R
OWATONNA       CLOUDY    59  48  67 W10       30.01R
WASECA         PTCLDY    55  48  76 W7        30.03R
ALBERT LEA     PTCLDY    57  50  77 W5        30.03R
$$
MNZ078>079-086>088-094>096-260200-
   Southeast Minnesota

CITY           SKY/WX    TMP DP  RH WIND       PRES   REMARKS
ROCHESTER      CLOUDY    58  52  80 W12G20    30.01R
RED WING       CLOUDY    59  54  82 W9        29.95R
STANTON        CLOUDY    60  50  69 W9        29.97R
DODGE CENTER   CLOUDY    57  50  77 W13G18    30.01R
WINONA         CLOUDY    61  54  77 W8G17     29.97R
AUSTIN         CLOUDY    57  52  82 W7        30.02R
PRESTON        CLOUDY    56  51  83 W15       30.01R
$$
ABBREVIATIONS USED IN REMARKS
   TC - TEMPERATURES IN CELSIUS
  WCI - WIND CHILL INDEX
   HX - HEAT INDEX
  VSB - VISIBILITY
$$



USA.gov is the U.S. government's official web portal to all federal, state and local government web resources and services.